| time (UTC) | temp F | wind direction | speed MPH | gust MPH | rain 1hr in | rain 24hr in | rain mn in | humidity % | barometer mb |
| 20260506141535 | 65 | 175 | 7.0 | 13.0 | 0.00 | 0.00 | 0.00 | 73 | 1013.2 |
| 20260506141209 | 66 | 268 | 6.0 | 13.0 | 0.00 | 0.00 | 0.00 | 73 | 1015.3 |
| 20260506141023 | 65 | 203 | 7.0 | 14.0 | 0.00 | 0.00 | 0.00 | 73 | 1013.3 |
| 20260506140521 | 65 | 226 | 5.0 | 14.0 | 0.00 | 0.00 | 0.00 | 73 | 1013.1 |
| 20260506140224 | 66 | 164 | 5.0 | 13.0 | 0.00 | 0.00 | 0.00 | 73 | 1015.1 |
| 20260506140044 | 65 | 178 | 3.0 | 13.0 | 0.00 | 0.00 | 0.00 | 73 | 1013.1 |
| 20260506135524 | 65 | 183 | 5.0 | 13.0 | 0.00 | 0.00 | 0.00 | 73 | 1013.1 |
| 20260506135219 | 65 | 176 | 5.0 | 11.0 | 0.00 | 0.00 | 0.00 | 73 | 1014.9 |
| 20260506135020 | 65 | 178 | 6.0 | 13.0 | 0.00 | 0.00 | 0.00 | 73 | 1013.0 |
| 20260506134542 | 65 | 154 | 5.0 | 12.0 | 0.00 | 0.00 | 0.00 | 74 | 1013.1 |
| 20260506134226 | 65 | 176 | 5.0 | 11.0 | 0.00 | 0.00 | 0.00 | 73 | 1015.2 |
| 20260506134021 | 65 | 185 | 5.0 | 12.0 | 0.00 | 0.00 | 0.00 | 74 | 1013.2 |
| 20260506133522 | 64 | 191 | 5.0 | 12.0 | 0.00 | 0.00 | 0.00 | 74 | 1013.3 |
| 20260506133241 | 65 | 245 | 5.0 | 10.0 | 0.00 | 0.00 | 0.00 | 74 | 1015.3 |
| 20260506133044 | 64 | 193 | 4.0 | 11.0 | 0.00 | 0.00 | 0.00 | 74 | 1013.2 |
| 20260506132522 | 64 | 166 | 6.0 | 11.0 | 0.00 | 0.00 | 0.00 | 74 | 1013.4 |
| 20260506132021 | 64 | 193 | 4.0 | 13.0 | 0.00 | 0.00 | 0.00 | 74 | 1013.3 |
| 20260506131540 | 64 | 205 | 7.0 | 17.0 | 0.00 | 0.00 | 0.00 | 74 | 1013.3 |
| 20260506131021 | 64 | 146 | 6.0 | 17.0 | 0.00 | 0.00 | 0.00 | 75 | 1012.9 |
| 20260506130520 | 64 | 160 | 7.0 | 16.0 | 0.00 | 0.00 | 0.00 | 75 | 1012.9 |
| 20260506130041 | 63 | 188 | 5.0 | 16.0 | 0.00 | 0.00 | 0.00 | 75 | 1012.7 |
| 20260506125959 | 64 | 167 | 6.0 | 12.0 | 0.00 | 0.00 | 0.00 | 75 | 1014.6 |
| 20260506125521 | 63 | 135 | 5.0 | 13.0 | 0.00 | 0.00 | 0.00 | 75 | 1012.9 |
| 20260506125018 | 63 | 185 | 4.0 | 13.0 | 0.00 | 0.00 | 0.00 | 75 | 1013.0 |
| 20260506124934 | 64 | 140 | 4.0 | 12.0 | 0.00 | 0.00 | 0.00 | 75 | 1015.2 |
| 20260506124535 | 63 | 179 | 6.0 | 13.0 | 0.00 | 0.00 | 0.00 | 76 | 1013.4 |
| 20260506124022 | 63 | 176 | 5.0 | 13.0 | 0.00 | 0.00 | 0.00 | 76 | 1013.5 |
| 20260506123917 | 63 | 198 | 5.0 | 11.0 | 0.00 | 0.00 | 0.00 | 76 | 1015.5 |
| 20260506123521 | 63 | 191 | 7.0 | 13.0 | 0.00 | 0.00 | 0.00 | 76 | 1013.5 |
| 20260506123036 | 63 | 190 | 4.0 | 14.0 | 0.00 | 0.00 | 0.00 | 76 | 1013.5 |
| 20260506122941 | 63 | 166 | 4.0 | 10.0 | 0.00 | 0.00 | 0.00 | 76 | 1015.5 |
| 20260506122518 | 62 | 216 | 6.0 | 14.0 | 0.00 | 0.00 | 0.00 | 76 | 1013.4 |
| 20260506122017 | 62 | 207 | 5.0 | 13.0 | 0.00 | 0.00 | 0.00 | 77 | 1013.5 |
| 20260506121547 | 62 | 191 | 6.0 | 18.0 | 0.00 | 0.00 | 0.00 | 77 | 1013.6 |
| 20260506121018 | 62 | 185 | 8.0 | 18.0 | 0.00 | 0.00 | 0.00 | 77 | 1013.5 |
| 20260506120755 | 63 | 188 | 6.0 | 15.0 | 0.00 | 0.00 | 0.00 | 77 | 1015.5 |
| 20260506120521 | 62 | 168 | 9.0 | 15.0 | 0.00 | 0.00 | 0.00 | 77 | 1013.4 |
| 20260506120042 | 62 | 172 | 4.0 | 14.0 | 0.00 | 0.00 | 0.00 | 77 | 1013.3 |
| 20260506115820 | 62 | 161 | 5.0 | 11.0 | 0.00 | 0.00 | 0.00 | 77 | 1015.3 |
| 20260506115520 | 62 | 249 | 6.0 | 14.0 | 0.00 | 0.00 | 0.00 | 77 | 1013.4 |
| 20260506115021 | 62 | 154 | 4.0 | 12.0 | 0.00 | 0.00 | 0.00 | 77 | 1013.3 |
| 20260506114841 | 62 | 155 | 4.0 | 11.0 | 0.00 | 0.00 | 0.00 | 77 | 1015.2 |
| 20260506114534 | 62 | 130 | 5.0 | 14.0 | 0.00 | 0.00 | 0.00 | 77 | 1013.1 |
| 20260506114023 | 62 | 201 | 3.0 | 14.0 | 0.00 | 0.00 | 0.00 | 77 | 1013.1 |
| 20260506113851 | 62 | 204 | 6.0 | 11.0 | 0.00 | 0.00 | 0.00 | 77 | 1015.1 |
| 20260506113518 | 62 | 148 | 4.0 | 12.0 | 0.00 | 0.00 | 0.00 | 77 | 1013.0 |
| 20260506113034 | 62 | 187 | 6.0 | 12.0 | 0.00 | 0.00 | 0.00 | 77 | 1013.1 |
| 20260506112818 | 62 | 173 | 4.0 | 9.0 | 0.00 | 0.00 | 0.00 | 77 | 1015.0 |
| 20260506112523 | 62 | 178 | 3.0 | 12.0 | 0.00 | 0.00 | 0.00 | 77 | 1013.1 |
| 20260506112025 | 62 | 214 | 7.0 | 12.0 | 0.00 | 0.00 | 0.00 | 78 | 1012.9 |
| 20260506111750 | 62 | 169 | 4.0 | 12.0 | 0.00 | 0.00 | 0.00 | 78 | 1015.1 |
| 20260506111543 | 61 | 224 | 6.0 | 14.0 | 0.00 | 0.00 | 0.00 | 78 | 1013.1 |
| 20260506111019 | 61 | 142 | 4.0 | 14.0 | 0.00 | 0.00 | 0.00 | 78 | 1012.8 |
| 20260506110750 | 62 | 191 | 4.0 | 12.0 | 0.00 | 0.00 | 0.00 | 78 | 1015.0 |
| 20260506110518 | 61 | 210 | 5.0 | 11.0 | 0.00 | 0.00 | 0.00 | 78 | 1012.9 |
| 20260506110042 | 61 | 139 | 2.0 | 10.0 | 0.00 | 0.00 | 0.00 | 78 | 1012.7 |
| 20260506105811 | 62 | 209 | 3.0 | 8.0 | 0.00 | 0.00 | 0.00 | 78 | 1014.6 |
| 20260506105521 | 61 | 218 | 3.0 | 10.0 | 0.00 | 0.00 | 0.00 | 78 | 1012.7 |
| 20260506105021 | 61 | 160 | 3.0 | 10.0 | 0.00 | 0.00 | 0.00 | 78 | 1012.8 |
| 20260506104819 | 62 | 154 | 3.0 | 8.0 | 0.00 | 0.00 | 0.00 | 78 | 1014.6 |
| 20260506104541 | 61 | 178 | 3.0 | 10.0 | 0.00 | 0.00 | 0.00 | 78 | 1012.6 |
| 20260506104022 | 61 | 177 | 4.0 | 13.0 | 0.00 | 0.00 | 0.00 | 78 | 1012.3 |
| 20260506103801 | 62 | 110 | 5.0 | 11.0 | 0.00 | 0.00 | 0.00 | 78 | 1014.4 |
| 20260506103518 | 61 | 152 | 5.0 | 14.0 | 0.00 | 0.00 | 0.00 | 77 | 1012.3 |
| 20260506103041 | 62 | 178 | 7.0 | 14.0 | 0.00 | 0.00 | 0.00 | 77 | 1012.3 |
| 20260506102734 | 62 | 157 | 5.0 | 11.0 | 0.00 | 0.00 | 0.00 | 77 | 1014.6 |
| 20260506102518 | 62 | 174 | 6.0 | 14.0 | 0.00 | 0.00 | 0.00 | 77 | 1012.6 |
| 20260506102021 | 62 | 181 | 7.0 | 16.0 | 0.00 | 0.00 | 0.00 | 77 | 1012.5 |
| 20260506101732 | 62 | 154 | 4.0 | 11.0 | 0.00 | 0.00 | 0.00 | 77 | 1014.6 |
| 20260506101536 | 62 | 149 | 3.0 | 16.0 | 0.00 | 0.00 | 0.00 | 77 | 1012.6 |
| 20260506101023 | 62 | 131 | 7.0 | 13.0 | 0.00 | 0.00 | 0.00 | 77 | 1012.3 |
| 20260506100522 | 62 | 168 | 3.0 | 14.0 | 0.00 | 0.00 | 0.00 | 77 | 1012.4 |
| 20260506100043 | 62 | 186 | 6.0 | 14.0 | 0.00 | 0.00 | 0.00 | 77 | 1012.2 |
| 20260506095628 | 63 | 168 | 4.0 | 13.0 | 0.00 | 0.00 | 0.00 | 77 | 1014.4 |
| 20260506095518 | 62 | 207 | 6.0 | 17.0 | 0.00 | 0.00 | 0.00 | 77 | 1012.3 |
| 20260506095021 | 62 | 198 | 3.0 | 17.0 | 0.00 | 0.00 | 0.00 | 77 | 1012.4 |
| 20260506094542 | 62 | 160 | 3.0 | 12.0 | 0.00 | 0.00 | 0.00 | 77 | 1012.4 |
| 20260506094021 | 62 | 206 | 6.0 | 12.0 | 0.00 | 0.00 | 0.00 | 77 | 1012.4 |
| 20260506093521 | 62 | 178 | 4.0 | 12.0 | 0.00 | 0.00 | 0.00 | 77 | 1012.4 |
| 20260506093419 | 62 | 134 | 4.0 | 8.0 | 0.00 | 0.00 | 0.00 | 77 | 1014.6 |
| 20260506093044 | 62 | 146 | 3.0 | 10.0 | 0.00 | 0.00 | 0.00 | 77 | 1012.5 |
| 20260506092521 | 62 | 206 | 5.0 | 12.0 | 0.00 | 0.00 | 0.00 | 77 | 1012.7 |
| 20260506092437 | 63 | 164 | 4.0 | 11.0 | 0.00 | 0.00 | 0.00 | 77 | 1014.7 |
| 20260506092018 | 62 | 148 | 5.0 | 13.0 | 0.00 | 0.00 | 0.00 | 77 | 1012.5 |
| 20260506091540 | 62 | 200 | 6.0 | 13.0 | 0.00 | 0.00 | 0.00 | 77 | 1012.5 |
| 20260506091424 | 63 | 129 | 4.0 | 11.0 | 0.00 | 0.00 | 0.00 | 77 | 1014.6 |
| 20260506091023 | 62 | 172 | 3.0 | 11.0 | 0.00 | 0.00 | 0.00 | 76 | 1012.6 |
| 20260506090518 | 62 | 201 | 5.0 | 15.0 | 0.00 | 0.00 | 0.00 | 76 | 1012.7 |
| 20260506090417 | 63 | 177 | 5.0 | 14.0 | 0.00 | 0.00 | 0.00 | 76 | 1014.7 |
| 20260506090044 | 62 | 184 | 5.0 | 15.0 | 0.00 | 0.00 | 0.00 | 76 | 1012.7 |
| 20260506085519 | 62 | 206 | 7.0 | 15.0 | 0.00 | 0.00 | 0.00 | 76 | 1012.7 |
| 20260506085435 | 63 | 187 | 5.0 | 14.0 | 0.00 | 0.00 | 0.00 | 76 | 1014.7 |
| 20260506085018 | 62 | 194 | 6.0 | 15.0 | 0.00 | 0.00 | 0.00 | 76 | 1012.9 |
| 20260506084543 | 62 | 196 | 5.0 | 12.0 | 0.00 | 0.00 | 0.00 | 76 | 1012.9 |
| 20260506084410 | 63 | 62 | 4.0 | 11.0 | 0.00 | 0.00 | 0.00 | 76 | 1014.9 |
| 20260506084018 | 63 | 139 | 4.0 | 12.0 | 0.00 | 0.00 | 0.00 | 76 | 1013.0 |
| 20260506083523 | 63 | 156 | 6.0 | 12.0 | 0.00 | 0.00 | 0.00 | 76 | 1013.0 |
| 20260506083339 | 63 | 184 | 5.0 | 12.0 | 0.00 | 0.00 | 0.00 | 76 | 1014.9 |
| 20260506083038 | 63 | 177 | 4.0 | 14.0 | 0.00 | 0.00 | 0.00 | 75 | 1012.9 |
| 20260506082523 | 63 | 189 | 4.0 | 14.0 | 0.00 | 0.00 | 0.00 | 75 | 1013.0 |
| 20260506082346 | 63 | 203 | 4.0 | 12.0 | 0.00 | 0.00 | 0.00 | 75 | 1014.9 |
| 20260506082022 | 63 | 195 | 5.0 | 14.0 | 0.00 | 0.00 | 0.00 | 75 | 1013.0 |
| 20260506081543 | 63 | 145 | 3.0 | 12.0 | 0.00 | 0.00 | 0.00 | 75 | 1013.1 |
| 20260506081330 | 64 | 172 | 4.0 | 9.0 | 0.00 | 0.00 | 0.00 | 75 | 1015.1 |
| 20260506081023 | 63 | 156 | 4.0 | 13.0 | 0.00 | 0.00 | 0.00 | 75 | 1013.1 |
| 20260506080523 | 63 | 162 | 3.0 | 13.0 | 0.00 | 0.00 | 0.00 | 75 | 1013.2 |
| 20260506080306 | 64 | 168 | 4.0 | 11.0 | 0.00 | 0.00 | 0.00 | 75 | 1015.2 |
| 20260506073526 | 63 | 204 | 4.0 | 10.0 | 0.00 | 0.00 | 0.00 | 75 | 1013.1 |
| 20260506073041 | 63 | 160 | 3.0 | 12.0 | 0.00 | 0.00 | 0.00 | 75 | 1012.7 |
| 20260506072522 | 63 | 156 | 4.0 | 12.0 | 0.00 | 0.00 | 0.00 | 75 | 1012.8 |
| 20260506072123 | 64 | 158 | 6.0 | 11.0 | 0.00 | 0.00 | 0.00 | 74 | 1014.9 |
| 20260506072023 | 63 | 126 | 7.0 | 15.0 | 0.00 | 0.00 | 0.00 | 74 | 1012.8 |
| 20260506071547 | 63 | 186 | 7.0 | 15.0 | 0.00 | 0.00 | 0.00 | 74 | 1012.9 |
| 20260506071101 | 64 | 176 | 4.0 | 12.0 | 0.00 | 0.00 | 0.00 | 74 | 1014.9 |
| 20260506071022 | 63 | 111 | 5.0 | 15.0 | 0.00 | 0.00 | 0.00 | 74 | 1012.9 |
| 20260506070524 | 63 | 170 | 6.0 | 14.0 | 0.00 | 0.00 | 0.00 | 74 | 1012.9 |
| 20260506062022 | 64 | 132 | 5.0 | 12.0 | 0.00 | 0.00 | 0.00 | 71 | 1013.3 |
| 20260506062000 | 64 | 153 | 4.0 | 10.0 | 0.00 | 0.00 | 0.00 | 71 | 1015.4 |
| 20260506061543 | 64 | 202 | 4.0 | 12.0 | 0.00 | 0.00 | 0.00 | 71 | 1013.4 |
| 20260506061026 | 64 | 189 | 4.0 | 13.0 | 0.00 | 0.00 | 0.00 | 70 | 1013.4 |
| 20260506061024 | 64 | 190 | 4.0 | 13.0 | 0.00 | 0.00 | 0.00 | 70 | 1015.4 |
| 20260506060523 | 64 | 195 | 4.0 | 14.0 | 0.00 | 0.00 | 0.00 | 70 | 1013.3 |
| 20260506051020 | 65 | 186 | 6.0 | 11.0 | 0.00 | 0.00 | 0.00 | 65 | 1013.4 |
| 20260506050737 | 66 | 135 | 4.0 | 12.0 | 0.00 | 0.00 | 0.00 | 65 | 1015.4 |
| 20260506050521 | 65 | 132 | 5.0 | 13.0 | 0.00 | 0.00 | 0.00 | 64 | 1013.4 |
| 20260506050103 | 65 | 178 | 6.0 | 13.0 | 0.00 | 0.00 | 0.00 | 64 | 1013.5 |
| 20260506045021 | 66 | 225 | 6.0 | 12.0 | 0.00 | 0.00 | 0.00 | 63 | 1013.7 |
| 20260506044546 | 66 | 207 | 5.0 | 11.0 | 0.00 | 0.00 | 0.00 | 62 | 1015.6 |
| 20260506044544 | 66 | 187 | 5.0 | 13.0 | 0.00 | 0.00 | 0.00 | 62 | 1013.6 |
| 20260506044021 | 66 | 180 | 6.0 | 14.0 | 0.00 | 0.00 | 0.00 | 62 | 1013.6 |
| 20260506043606 | 67 | 120 | 6.0 | 11.0 | 0.00 | 0.00 | 0.00 | 62 | 1015.5 |
| 20260506043521 | 66 | 174 | 4.0 | 14.0 | 0.00 | 0.00 | 0.00 | 62 | 1013.5 |
| 20260506043040 | 66 | 136 | 7.0 | 13.0 | 0.00 | 0.00 | 0.00 | 61 | 1013.6 |
| 20260506042617 | 67 | 171 | 4.0 | 12.0 | 0.00 | 0.00 | 0.00 | 60 | 1015.6 |
| 20260506042520 | 66 | 199 | 5.0 | 10.0 | 0.00 | 0.00 | 0.00 | 60 | 1013.6 |
| 20260506042018 | 67 | 181 | 6.0 | 11.0 | 0.00 | 0.00 | 0.00 | 59 | 1013.7 |
| 20260506041550 | 67 | 174 | 3.0 | 16.0 | 0.00 | 0.00 | 0.00 | 59 | 1013.7 |
| 20260506041018 | 67 | 151 | 7.0 | 16.0 | 0.00 | 0.00 | 0.00 | 58 | 1013.6 |
| 20260506040552 | 68 | 194 | 5.0 | 13.0 | 0.00 | 0.00 | 0.00 | 57 | 1015.6 |
| 20260506040518 | 67 | 156 | 5.0 | 14.0 | 0.00 | 0.00 | 0.00 | 57 | 1013.6 |
| 20260506040035 | 67 | 168 | 6.0 | 14.0 | 0.00 | 0.00 | 0.00 | 57 | 1013.5 |
| 20260506035531 | 68 | 200 | 4.0 | 12.0 | 0.00 | 0.00 | 0.00 | 56 | 1015.6 |
| 20260506035521 | 67 | 195 | 3.0 | 11.0 | 0.00 | 0.00 | 0.00 | 56 | 1013.6 |
| 20260506035021 | 68 | 131 | 5.0 | 13.0 | 0.00 | 0.00 | 0.00 | 55 | 1013.5 |
| 20260506034550 | 68 | 158 | 6.0 | 13.0 | 0.00 | 0.00 | 0.00 | 55 | 1013.4 |
| 20260506034535 | 68 | 168 | 5.0 | 12.0 | 0.00 | 0.00 | 0.00 | 55 | 1015.4 |
| 20260506034025 | 68 | 168 | 5.0 | 13.0 | 0.00 | 0.00 | 0.00 | 55 | 1013.3 |
| 20260506033530 | 68 | 174 | 4.0 | 10.0 | 0.00 | 0.00 | 0.00 | 55 | 1015.2 |
| 20260506033524 | 68 | 202 | 4.0 | 12.0 | 0.00 | 0.00 | 0.00 | 55 | 1013.2 |
| 20260506033041 | 68 | 210 | 5.0 | 12.0 | 0.00 | 0.00 | 0.00 | 54 | 1013.1 |
| 20260506032553 | 68 | 189 | 4.0 | 11.0 | 0.00 | 0.00 | 0.00 | 54 | 1015.2 |
| 20260506032517 | 68 | 164 | 6.0 | 11.0 | 0.00 | 0.00 | 0.00 | 54 | 1013.1 |
| 20260506032020 | 68 | 142 | 5.0 | 15.0 | 0.00 | 0.00 | 0.00 | 54 | 1013.2 |
| 20260506031544 | 69 | 94 | 5.0 | 11.0 | 0.00 | 0.00 | 0.00 | 54 | 1015.2 |
| 20260506031541 | 68 | 131 | 5.0 | 15.0 | 0.00 | 0.00 | 0.00 | 54 | 1013.2 |
| 20260506031018 | 68 | 160 | 3.0 | 10.0 | 0.00 | 0.00 | 0.00 | 54 | 1013.4 |
| 20260506030603 | 69 | 173 | 4.0 | 9.0 | 0.00 | 0.00 | 0.00 | 54 | 1015.5 |
| 20260506030517 | 68 | 134 | 5.0 | 12.0 | 0.00 | 0.00 | 0.00 | 54 | 1013.4 |
| 20260506030040 | 68 | 150 | 4.0 | 12.0 | 0.00 | 0.00 | 0.00 | 54 | 1013.4 |
| 20260506025607 | 69 | 160 | 4.0 | 11.0 | 0.00 | 0.00 | 0.00 | 54 | 1015.5 |
| 20260506025521 | 68 | 224 | 5.0 | 12.0 | 0.00 | 0.00 | 0.00 | 55 | 1013.5 |
| 20260506025018 | 68 | 178 | 4.0 | 12.0 | 0.00 | 0.00 | 0.00 | 55 | 1013.6 |
| 20260506024546 | 68 | 162 | 3.0 | 11.0 | 0.00 | 0.00 | 0.00 | 55 | 1015.6 |
| 20260506024536 | 68 | 139 | 5.0 | 11.0 | 0.00 | 0.00 | 0.00 | 55 | 1013.4 |
| 20260506024018 | 67 | 171 | 4.0 | 11.0 | 0.00 | 0.00 | 0.00 | 56 | 1013.6 |
| 20260506023521 | 67 | 80 | 3.0 | 10.0 | 0.00 | 0.00 | 0.00 | 56 | 1013.7 |
| 20260506023034 | 67 | 168 | 4.0 | 8.0 | 0.00 | 0.00 | 0.00 | 56 | 1013.8 |
| 20260506022517 | 67 | 201 | 3.0 | 6.0 | 0.00 | 0.00 | 0.00 | 56 | 1013.8 |
| 20260506022353 | 68 | 139 | 1.0 | 4.0 | 0.00 | 0.00 | 0.00 | 56 | 1015.8 |
| 20260506022020 | 67 | 203 | 2.0 | 5.0 | 0.00 | 0.00 | 0.00 | 56 | 1013.8 |
| 20260506021542 | 68 | 140 | 1.0 | 4.0 | 0.00 | 0.00 | 0.00 | 55 | 1013.9 |
| 20260506021321 | 68 | 141 | 1.0 | 7.0 | 0.00 | 0.00 | 0.00 | 55 | 1016.0 |
| 20260506021021 | 68 | 0 | 1.0 | 4.0 | 0.00 | 0.00 | 0.00 | 54 | 1013.8 |
| 20260506020526 | 68 | 147 | 1.0 | 8.0 | 0.00 | 0.00 | 0.00 | 54 | 1013.8 |
| 20260506020326 | 69 | 178 | 1.0 | 7.0 | 0.00 | 0.00 | 0.00 | 54 | 1015.9 |
| 20260506020050 | 68 | 152 | 2.0 | 8.0 | 0.00 | 0.00 | 0.00 | 54 | 1013.8 |
| 20260506015521 | 68 | 196 | 2.0 | 7.0 | 0.00 | 0.00 | 0.00 | 54 | 1013.7 |
| 20260506015022 | 68 | 157 | 1.0 | 6.0 | 0.00 | 0.00 | 0.00 | 53 | 1013.8 |
| 20260506014538 | 68 | 162 | 2.0 | 6.0 | 0.00 | 0.00 | 0.00 | 53 | 1013.6 |
| 20260506014021 | 68 | 143 | 2.0 | 6.0 | 0.00 | 0.00 | 0.00 | 53 | 1013.7 |
| 20260506013521 | 68 | 164 | 2.0 | 6.0 | 0.00 | 0.00 | 0.00 | 53 | 1013.6 |
| 20260506013051 | 69 | 160 | 2.0 | 6.0 | 0.00 | 0.00 | 0.00 | 52 | 1013.5 |
| 20260506013032 | 69 | 146 | 1.0 | 4.0 | 0.00 | 0.00 | 0.00 | 52 | 1015.5 |
| 20260506012521 | 69 | 181 | 1.0 | 5.0 | 0.00 | 0.00 | 0.00 | 51 | 1013.5 |
| 20260506012020 | 69 | 151 | 1.0 | 6.0 | 0.00 | 0.00 | 0.00 | 51 | 1013.5 |
| 20260506012006 | 70 | 144 | 1.0 | 7.0 | 0.00 | 0.00 | 0.00 | 51 | 1015.6 |
| 20260506011547 | 69 | 182 | 2.0 | 8.0 | 0.00 | 0.00 | 0.00 | 50 | 1013.5 |
| 20260506011021 | 70 | 151 | 3.0 | 8.0 | 0.00 | 0.00 | 0.00 | 49 | 1013.5 |
| 20260506011014 | 70 | 150 | 2.0 | 7.0 | 0.00 | 0.00 | 0.00 | 49 | 1015.5 |
| 20260506010522 | 70 | 141 | 2.0 | 4.0 | 0.00 | 0.00 | 0.00 | 49 | 1013.4 |
| 20260506010043 | 70 | 143 | 1.0 | 5.0 | 0.00 | 0.00 | 0.00 | 48 | 1013.3 |
| 20260506005947 | 71 | 149 | 1.0 | 5.0 | 0.00 | 0.00 | 0.00 | 48 | 1015.4 |
| 20260506005524 | 71 | 145 | 2.0 | 6.0 | 0.00 | 0.00 | 0.00 | 48 | 1013.2 |
| 20260506005021 | 71 | 179 | 2.0 | 6.0 | 0.00 | 0.00 | 0.00 | 47 | 1013.3 |
| 20260506004934 | 71 | 129 | 1.0 | 5.0 | 0.00 | 0.00 | 0.00 | 47 | 1015.3 |
| 20260506004540 | 71 | 175 | 2.0 | 6.0 | 0.00 | 0.00 | 0.00 | 47 | 1013.4 |
| 20260506004021 | 71 | 169 | 2.0 | 6.0 | 0.00 | 0.00 | 0.00 | 46 | 1013.1 |
| 20260506003901 | 72 | 170 | 2.0 | 8.0 | 0.00 | 0.00 | 0.00 | 46 | 1015.2 |
| 20260506003521 | 72 | 130 | 2.0 | 7.0 | 0.00 | 0.00 | 0.00 | 46 | 1013.1 |
| 20260506003041 | 72 | 186 | 3.0 | 9.0 | 0.00 | 0.00 | 0.00 | 45 | 1013.1 |
| 20260506002903 | 73 | 171 | 3.0 | 8.0 | 0.00 | 0.00 | 0.00 | 45 | 1015.1 |
| 20260506002521 | 72 | 149 | 2.0 | 9.0 | 0.00 | 0.00 | 0.00 | 45 | 1013.1 |
| 20260506002021 | 72 | 178 | 3.0 | 9.0 | 0.00 | 0.00 | 0.00 | 44 | 1013.1 |
| 20260506001834 | 73 | 125 | 2.0 | 7.0 | 0.00 | 0.00 | 0.00 | 44 | 1015.0 |
| 20260506001544 | 73 | 153 | 2.0 | 9.0 | 0.00 | 0.00 | 0.00 | 44 | 1013.0 |
| 20260506001021 | 73 | 223 | 3.0 | 12.0 | 0.00 | 0.00 | 0.00 | 43 | 1013.1 |
| 20260506000840 | 74 | 131 | 4.0 | 16.0 | 0.00 | 0.00 | 0.00 | 43 | 1015.0 |
| 20260506000522 | 73 | 170 | 4.0 | 16.0 | 0.00 | 0.00 | 0.00 | 43 | 1013.0 |
| 20260506000041 | 73 | 174 | 5.0 | 17.0 | 0.00 | 0.00 | 0.00 | 43 | 1013.0 |
| 20260505235812 | 74 | 193 | 4.0 | 16.0 | 0.00 | 0.00 | 0.00 | 43 | 1015.0 |
| 20260505235521 | 74 | 154 | 4.0 | 17.0 | 0.00 | 0.00 | 0.00 | 42 | 1013.0 |
| 20260505235022 | 74 | 156 | 6.0 | 12.0 | 0.00 | 0.00 | 0.00 | 42 | 1012.9 |
| 20260505234835 | 74 | 155 | 4.0 | 11.0 | 0.00 | 0.00 | 0.00 | 42 | 1014.9 |
| 20260505234539 | 74 | 203 | 4.0 | 12.0 | 0.00 | 0.00 | 0.00 | 42 | 1012.9 |
| 20260505234021 | 74 | 177 | 6.0 | 11.0 | 0.00 | 0.00 | 0.00 | 42 | 1012.8 |
| 20260505233853 | 75 | 184 | 4.0 | 15.0 | 0.00 | 0.00 | 0.00 | 42 | 1014.8 |
| 20260505233521 | 75 | 151 | 3.0 | 11.0 | 0.00 | 0.00 | 0.00 | 41 | 1012.8 |
| 20260505233036 | 75 | 170 | 4.0 | 16.0 | 0.00 | 0.00 | 0.00 | 41 | 1012.7 |
| 20260505232522 | 75 | 143 | 5.0 | 16.0 | 0.00 | 0.00 | 0.00 | 40 | 1012.7 |
| 20260505232022 | 75 | 187 | 7.0 | 15.0 | 0.00 | 0.00 | 0.00 | 40 | 1012.6 |
| 20260505231707 | 76 | 197 | 5.0 | 14.0 | 0.00 | 0.00 | 0.00 | 40 | 1014.6 |
| 20260505231551 | 76 | 171 | 4.0 | 13.0 | 0.00 | 0.00 | 0.00 | 40 | 1012.7 |
| 20260505231017 | 76 | 174 | 5.0 | 16.0 | 0.00 | 0.00 | 0.00 | 40 | 1012.4 |
| 20260505230519 | 76 | 178 | 8.0 | 16.0 | 0.00 | 0.00 | 0.00 | 39 | 1012.4 |
| 20260505230108 | 76 | 185 | 8.0 | 16.0 | 0.00 | 0.00 | 0.00 | 39 | 1012.4 |
| 20260505225539 | 77 | 162 | 7.0 | 18.0 | 0.00 | 0.00 | 0.00 | 40 | 1014.5 |
| 20260505225518 | 76 | 129 | 6.0 | 19.0 | 0.00 | 0.00 | 0.00 | 40 | 1012.5 |
| 20260505225020 | 76 | 222 | 9.0 | 19.0 | 0.00 | 0.00 | 0.00 | 38 | 1012.4 |
| 20260505224543 | 77 | 193 | 7.0 | 16.0 | 0.00 | 0.00 | 0.00 | 38 | 1012.6 |
| 20260505224539 | 77 | 203 | 6.0 | 18.0 | 0.00 | 0.00 | 0.00 | 38 | 1014.7 |
| 20260505224020 | 77 | 165 | 5.0 | 18.0 | 0.00 | 0.00 | 0.00 | 38 | 1012.8 |
| 20260505223519 | 77 | 134 | 8.0 | 18.0 | 0.00 | 0.00 | 0.00 | 37 | 1012.7 |
| 20260505223517 | 77 | 158 | 8.0 | 16.0 | 0.00 | 0.00 | 0.00 | 37 | 1014.7 |
| 20260505223043 | 77 | 212 | 9.0 | 18.0 | 0.00 | 0.00 | 0.00 | 36 | 1012.8 |
| 20260505222527 | 78 | 194 | 8.0 | 16.0 | 0.00 | 0.00 | 0.00 | 37 | 1014.7 |
| 20260505222525 | 78 | 181 | 8.0 | 18.0 | 0.00 | 0.00 | 0.00 | 37 | 1012.7 |
| 20260505222018 | 78 | 187 | 8.0 | 18.0 | 0.00 | 0.00 | 0.00 | 37 | 1012.7 |
| 20260505221549 | 78 | 218 | 8.0 | 13.0 | 0.00 | 0.00 | 0.00 | 37 | 1014.9 |
| 20260505221541 | 78 | 163 | 6.0 | 18.0 | 0.00 | 0.00 | 0.00 | 38 | 1012.9 |
| 20260505221020 | 78 | 152 | 10.0 | 18.0 | 0.00 | 0.00 | 0.00 | 37 | 1012.9 |
| 20260505220518 | 78 | 135 | 9.0 | 18.0 | 0.00 | 0.00 | 0.00 | 38 | 1012.9 |
| 20260505220049 | 78 | 126 | 8.0 | 17.0 | 0.00 | 0.00 | 0.00 | 38 | 1012.9 |
| 20260505215518 | 77 | 179 | 8.0 | 19.0 | 0.00 | 0.00 | 0.00 | 38 | 1012.9 |
| 20260505215452 | 78 | 149 | 8.0 | 18.0 | 0.00 | 0.00 | 0.00 | 37 | 1015.0 |
| 20260505215017 | 78 | 164 | 9.0 | 19.0 | 0.00 | 0.00 | 0.00 | 37 | 1013.0 |
| 20260505214540 | 79 | 253 | 10.0 | 19.0 | 0.00 | 0.00 | 0.00 | 36 | 1013.0 |
| 20260505214501 | 79 | 169 | 5.0 | 18.0 | 0.00 | 0.00 | 0.00 | 36 | 1015.0 |
| 20260505214020 | 80 | 198 | 4.0 | 16.0 | 0.00 | 0.00 | 0.00 | 36 | 1013.0 |
| 20260505213523 | 80 | 189 | 7.0 | 16.0 | 0.00 | 0.00 | 0.00 | 36 | 1013.0 |
| 20260505213510 | 80 | 177 | 8.0 | 21.0 | 0.00 | 0.00 | 0.00 | 36 | 1015.0 |
| 20260505213040 | 80 | 180 | 8.0 | 16.0 | 0.00 | 0.00 | 0.00 | 36 | 1012.9 |
| 20260505212520 | 79 | 205 | 8.0 | 22.0 | 0.00 | 0.00 | 0.00 | 34 | 1012.8 |
| 20260505212456 | 80 | 195 | 8.0 | 21.0 | 0.00 | 0.00 | 0.00 | 34 | 1014.8 |
| 20260505212022 | 80 | 252 | 8.0 | 22.0 | 0.00 | 0.00 | 0.00 | 34 | 1012.9 |
| 20260505211534 | 80 | 190 | 6.0 | 17.0 | 0.00 | 0.00 | 0.00 | 36 | 1013.1 |
| 20260505211439 | 80 | 193 | 6.0 | 16.0 | 0.00 | 0.00 | 0.00 | 36 | 1015.0 |
| 20260505211021 | 79 | 190 | 6.0 | 18.0 | 0.00 | 0.00 | 0.00 | 37 | 1013.1 |
| 20260505210521 | 78 | 193 | 7.0 | 21.0 | 0.00 | 0.00 | 0.00 | 38 | 1013.3 |
| 20260505210408 | 78 | 189 | 7.0 | 23.0 | 0.00 | 0.00 | 0.00 | 37 | 1015.3 |
| 20260505210036 | 78 | 259 | 6.0 | 21.0 | 0.00 | 0.00 | 0.00 | 37 | 1013.1 |
| 20260505205518 | 79 | 205 | 7.0 | 26.0 | 0.00 | 0.00 | 0.00 | 36 | 1013.4 |
| 20260505205403 | 80 | 194 | 10.0 | 23.0 | 0.00 | 0.00 | 0.00 | 36 | 1015.3 |
| 20260505205018 | 80 | 186 | 12.0 | 26.0 | 0.00 | 0.00 | 0.00 | 35 | 1013.4 |
| 20260505204535 | 80 | 196 | 10.0 | 18.0 | 0.00 | 0.00 | 0.00 | 36 | 1013.3 |
| 20260505204427 | 80 | 178 | 9.0 | 19.0 | 0.00 | 0.00 | 0.00 | 36 | 1015.2 |
| 20260505204017 | 79 | 209 | 7.0 | 20.0 | 0.00 | 0.00 | 0.00 | 35 | 1013.2 |
| 20260505203517 | 80 | 213 | 10.0 | 20.0 | 0.00 | 0.00 | 0.00 | 36 | 1013.2 |
| 20260505203357 | 80 | 185 | 9.0 | 19.0 | 0.00 | 0.00 | 0.00 | 36 | 1015.3 |
| 20260505203041 | 80 | 191 | 12.0 | 20.0 | 0.00 | 0.00 | 0.00 | 35 | 1013.1 |
| 20260505202518 | 80 | 191 | 9.0 | 17.0 | 0.00 | 0.00 | 0.00 | 37 | 1013.2 |
| 20260505202336 | 80 | 124 | 8.0 | 16.0 | 0.00 | 0.00 | 0.00 | 35 | 1015.2 |
| 20260505202020 | 80 | 157 | 8.0 | 18.0 | 0.00 | 0.00 | 0.00 | 35 | 1013.3 |
| 20260505201540 | 79 | 173 | 8.0 | 18.0 | 0.00 | 0.00 | 0.00 | 36 | 1013.3 |
| 20260505201117 | 80 | 181 | 6.0 | 20.0 | 0.00 | 0.00 | 0.00 | 36 | 1013.2 |
| 20260505200521 | 80 | 192 | 9.0 | 20.0 | 0.00 | 0.00 | 0.00 | 35 | 1013.4 |
| 20260505200205 | 81 | 162 | 9.0 | 20.0 | 0.00 | 0.00 | 0.00 | 34 | 1015.5 |
| 20260505200042 | 80 | 167 | 9.0 | 20.0 | 0.00 | 0.00 | 0.00 | 34 | 1013.4 |
| 20260505195521 | 80 | 186 | 11.0 | 19.0 | 0.00 | 0.00 | 0.00 | 35 | 1013.6 |
| 20260505195222 | 81 | 200 | 9.0 | 20.0 | 0.00 | 0.00 | 0.00 | 35 | 1015.6 |
| 20260505195022 | 80 | 206 | 9.0 | 21.0 | 0.00 | 0.00 | 0.00 | 35 | 1013.6 |
| 20260505194544 | 80 | 141 | 10.0 | 21.0 | 0.00 | 0.00 | 0.00 | 33 | 1013.5 |
| 20260505194202 | 81 | 72 | 8.0 | 19.0 | 0.00 | 0.00 | 0.00 | 35 | 1015.7 |
| 20260505194021 | 80 | 167 | 7.0 | 17.0 | 0.00 | 0.00 | 0.00 | 34 | 1013.7 |
| 20260505193521 | 80 | 226 | 7.0 | 17.0 | 0.00 | 0.00 | 0.00 | 35 | 1013.8 |
| 20260505193212 | 82 | 218 | 6.0 | 21.0 | 0.00 | 0.00 | 0.00 | 34 | 1015.9 |
| 20260505193042 | 81 | 206 | 7.0 | 22.0 | 0.00 | 0.00 | 0.00 | 35 | 1013.8 |
| 20260505192522 | 80 | 247 | 7.0 | 22.0 | 0.00 | 0.00 | 0.00 | 35 | 1013.8 |
| 20260505192225 | 80 | 181 | 9.0 | 21.0 | 0.00 | 0.00 | 0.00 | 36 | 1016.0 |
| 20260505192023 | 79 | 191 | 10.0 | 22.0 | 0.00 | 0.00 | 0.00 | 36 | 1014.0 |
| 20260505191544 | 79 | 179 | 10.0 | 21.0 | 0.00 | 0.00 | 0.00 | 37 | 1014.1 |
| 20260505191231 | 79 | 154 | 8.0 | 17.0 | 0.00 | 0.00 | 0.00 | 37 | 1016.1 |
| 20260505191024 | 79 | 205 | 7.0 | 20.0 | 0.00 | 0.00 | 0.00 | 36 | 1014.1 |
| 20260505190522 | 79 | 174 | 8.0 | 20.0 | 0.00 | 0.00 | 0.00 | 35 | 1014.1 |
| 20260505190253 | 80 | 270 | 8.0 | 17.0 | 0.00 | 0.00 | 0.00 | 36 | 1016.3 |
| 20260505190043 | 79 | 134 | 10.0 | 20.0 | 0.00 | 0.00 | 0.00 | 35 | 1014.3 |
| 20260505185524 | 79 | 192 | 8.0 | 17.0 | 0.00 | 0.00 | 0.00 | 37 | 1014.1 |
| 20260505185224 | 80 | 193 | 8.0 | 15.0 | 0.00 | 0.00 | 0.00 | 37 | 1016.3 |
| 20260505185022 | 80 | 202 | 7.0 | 18.0 | 0.00 | 0.00 | 0.00 | 36 | 1014.3 |
| 20260505184541 | 80 | 203 | 9.0 | 18.0 | 0.00 | 0.00 | 0.00 | 38 | 1014.5 |
| 20260505184155 | 80 | 126 | 6.0 | 19.0 | 0.00 | 0.00 | 0.00 | 39 | 1016.7 |
| 20260505184022 | 80 | 154 | 5.0 | 15.0 | 0.00 | 0.00 | 0.00 | 37 | 1014.5 |
| 20260505183522 | 79 | 187 | 6.0 | 22.0 | 0.00 | 0.00 | 0.00 | 38 | 1014.7 |
| 20260505183202 | 79 | 149 | 8.0 | 19.0 | 0.00 | 0.00 | 0.00 | 38 | 1016.7 |
| 20260505183042 | 79 | 214 | 9.0 | 22.0 | 0.00 | 0.00 | 0.00 | 39 | 1014.8 |
| 20260505182522 | 79 | 153 | 7.0 | 18.0 | 0.00 | 0.00 | 0.00 | 38 | 1014.7 |
| 20260505182212 | 79 | 194 | 8.0 | 18.0 | 0.00 | 0.00 | 0.00 | 39 | 1016.8 |
| 20260505182022 | 79 | 179 | 8.0 | 17.0 | 0.00 | 0.00 | 0.00 | 38 | 1014.8 |
| 20260505181541 | 78 | 176 | 8.0 | 17.0 | 0.00 | 0.00 | 0.00 | 38 | 1014.8 |
| 20260505181201 | 79 | 191 | 8.0 | 18.0 | 0.00 | 0.00 | 0.00 | 37 | 1016.8 |
| 20260505181022 | 78 | 137 | 8.0 | 19.0 | 0.00 | 0.00 | 0.00 | 38 | 1014.9 |
| 20260505180523 | 79 | 135 | 10.0 | 19.0 | 0.00 | 0.00 | 0.00 | 36 | 1014.9 |
| 20260505180203 | 79 | 184 | 7.0 | 13.0 | 0.00 | 0.00 | 0.00 | 37 | 1016.8 |
| 20260505180047 | 79 | 272 | 7.0 | 14.0 | 0.00 | 0.00 | 0.00 | 36 | 1014.7 |
| 20260505175522 | 79 | 168 | 8.0 | 14.0 | 0.00 | 0.00 | 0.00 | 38 | 1014.9 |
| 20260505175022 | 78 | 203 | 5.0 | 14.0 | 0.00 | 0.00 | 0.00 | 39 | 1015.0 |
| 20260505174542 | 78 | 188 | 6.0 | 15.0 | 0.00 | 0.00 | 0.00 | 38 | 1015.0 |
| 20260505174022 | 77 | 174 | 5.0 | 15.0 | 0.00 | 0.00 | 0.00 | 39 | 1015.0 |
| 20260505174006 | 78 | 282 | 6.0 | 18.0 | 0.00 | 0.00 | 0.00 | 39 | 1017.0 |
| 20260505173521 | 78 | 193 | 8.0 | 15.0 | 0.00 | 0.00 | 0.00 | 38 | 1015.1 |
| 20260505173041 | 78 | 169 | 8.0 | 19.0 | 0.00 | 0.00 | 0.00 | 37 | 1015.1 |
| 20260505173025 | 79 | 185 | 6.0 | 18.0 | 0.00 | 0.00 | 0.00 | 38 | 1017.1 |
| 20260505172521 | 79 | 214 | 7.0 | 19.0 | 0.00 | 0.00 | 0.00 | 38 | 1015.2 |
| 20260505172024 | 78 | 150 | 3.0 | 16.0 | 0.00 | 0.00 | 0.00 | 40 | 1015.2 |
| 20260505172001 | 78 | 220 | 6.0 | 14.0 | 0.00 | 0.00 | 0.00 | 40 | 1017.3 |
| 20260505171540 | 77 | 156 | 7.0 | 16.0 | 0.00 | 0.00 | 0.00 | 40 | 1015.2 |
| 20260505171025 | 78 | 242 | 7.0 | 16.0 | 0.00 | 0.00 | 0.00 | 41 | 1015.3 |
| 20260505170931 | 78 | 115 | 6.0 | 14.0 | 0.00 | 0.00 | 0.00 | 42 | 1017.3 |
| 20260505170522 | 78 | 171 | 7.0 | 16.0 | 0.00 | 0.00 | 0.00 | 41 | 1015.4 |
| 20260505170039 | 78 | 264 | 8.0 | 16.0 | 0.00 | 0.00 | 0.00 | 40 | 1015.3 |
| 20260505165910 | 79 | 200 | 6.0 | 13.0 | 0.00 | 0.00 | 0.00 | 40 | 1017.6 |
| 20260505165522 | 78 | 155 | 5.0 | 14.0 | 0.00 | 0.00 | 0.00 | 43 | 1015.5 |
| 20260505165025 | 77 | 145 | 6.0 | 14.0 | 0.00 | 0.00 | 0.00 | 42 | 1015.6 |
| 20260505164534 | 77 | 164 | 6.0 | 15.0 | 0.00 | 0.00 | 0.00 | 41 | 1015.6 |
| 20260505164022 | 77 | 158 | 7.0 | 16.0 | 0.00 | 0.00 | 0.00 | 41 | 1015.6 |
| 20260505163750 | 78 | 259 | 5.0 | 14.0 | 0.00 | 0.00 | 0.00 | 40 | 1017.7 |
| 20260505163522 | 77 | 168 | 7.0 | 16.0 | 0.00 | 0.00 | 0.00 | 41 | 1015.6 |
| 20260505163042 | 77 | 168 | 3.0 | 16.0 | 0.00 | 0.00 | 0.00 | 42 | 1015.7 |
| 20260505162735 | 77 | 204 | 6.0 | 14.0 | 0.00 | 0.00 | 0.00 | 42 | 1017.8 |
| 20260505162528 | 77 | 211 | 9.0 | 16.0 | 0.00 | 0.00 | 0.00 | 42 | 1015.9 |
| 20260505162021 | 76 | 266 | 4.0 | 15.0 | 0.00 | 0.00 | 0.00 | 46 | 1015.8 |
| 20260505161738 | 77 | 257 | 5.0 | 14.0 | 0.00 | 0.00 | 0.00 | 43 | 1017.7 |
| 20260505161544 | 76 | 320 | 6.0 | 15.0 | 0.00 | 0.00 | 0.00 | 43 | 1015.9 |
| 20260505161022 | 76 | 208 | 5.0 | 15.0 | 0.00 | 0.00 | 0.00 | 46 | 1015.9 |
| 20260505160720 | 76 | 146 | 6.0 | 14.0 | 0.00 | 0.00 | 0.00 | 44 | 1018.0 |
| 20260505160526 | 76 | 199 | 9.0 | 15.0 | 0.00 | 0.00 | 0.00 | 44 | 1016.0 |
| 20260505153035 | 74 | 125 | 5.0 | 11.0 | 0.00 | 0.00 | 0.00 | 49 | 1016.3 |
| 20260505152604 | 74 | 317 | 5.0 | 11.0 | 0.00 | 0.00 | 0.00 | 51 | 1018.2 |
| 20260505152521 | 73 | 224 | 5.0 | 12.0 | 0.00 | 0.00 | 0.00 | 50 | 1016.2 |
| 20260505152023 | 73 | 170 | 7.0 | 12.0 | 0.00 | 0.00 | 0.00 | 51 | 1016.2 |
| 20260505151543 | 72 | 154 | 5.0 | 12.0 | 0.00 | 0.00 | 0.00 | 51 | 1016.2 |
| 20260505151530 | 73 | 154 | 4.0 | 11.0 | 0.00 | 0.00 | 0.00 | 51 | 1018.3 |
| 20260505151021 | 73 | 170 | 4.0 | 12.0 | 0.00 | 0.00 | 0.00 | 51 | 1016.2 |
| 20260505150524 | 73 | 170 | 5.0 | 10.0 | 0.00 | 0.00 | 0.00 | 52 | 1016.2 |